| time (UTC) | temp F | wind direction | speed knots | gust knots | rain 1hr in | rain 24hr in | rain mn in | humidity % | barometer mb |
| 20260902032646 | 70 | 264 | 1.7 | 1.7 | 0.00 | 0.00 | 0.00 | 41 | 1004.9 |
| 20260902031604 | 71 | 270 | 0.0 | 1.7 | 0.00 | 0.00 | 0.00 | 39 | 1004.7 |
| 20260902030646 | 72 | 228 | 0.9 | 1.7 | 0.00 | 0.00 | 0.00 | 38 | 1004.7 |
| 20260902025604 | 74 | 244 | 0.9 | 2.6 | 0.00 | 0.00 | 0.00 | 37 | 1004.5 |
| 20260902024604 | 75 | 257 | 1.7 | 2.6 | 0.00 | 0.00 | 0.00 | 37 | 1004.4 |
| 20260902023606 | 76 | 267 | 1.7 | 5.2 | 0.00 | 0.00 | 0.00 | 36 | 1004.3 |
| 20260902022605 | 77 | 241 | 2.6 | 4.3 | 0.00 | 0.00 | 0.00 | 37 | 1004.2 |
| 20260902021604 | 78 | 255 | 1.7 | 4.3 | 0.00 | 0.00 | 0.00 | 37 | 1004.1 |
| 20260902020606 | 79 | 263 | 2.6 | 4.3 | 0.00 | 0.00 | 0.00 | 36 | 1004.1 |
| 20260902015605 | 80 | 256 | 3.5 | 5.2 | 0.00 | 0.00 | 0.00 | 36 | 1004.1 |
| 20260902014605 | 81 | 276 | 5.2 | 7.8 | 0.00 | 0.00 | 0.00 | 36 | 1004.0 |
| 20260902013625 | 82 | 279 | 4.3 | 6.1 | 0.00 | 0.00 | 0.00 | 38 | 1004.1 |
| 20260902012605 | 83 | 281 | 3.5 | 4.3 | 0.00 | 0.00 | 0.00 | 36 | 1003.8 |
| 20260902011626 | 84 | 231 | 1.7 | 2.6 | 0.00 | 0.00 | 0.00 | 35 | 1003.6 |
| 20260902010627 | 85 | 267 | 2.6 | 3.5 | 0.00 | 0.00 | 0.00 | 33 | 1003.6 |
| 20260902005605 | 86 | 271 | 3.5 | 4.3 | 0.00 | 0.00 | 0.00 | 32 | 1003.6 |
| 20260902004606 | 87 | 254 | 2.6 | 3.5 | 0.00 | 0.00 | 0.00 | 31 | 1003.5 |
| 20260902003607 | 87 | 244 | 6.1 | 8.7 | 0.00 | 0.00 | 0.00 | 26 | 1003.4 |
| 20260902002626 | 88 | 206 | 4.3 | 6.1 | 0.00 | 0.00 | 0.00 | 25 | 1003.5 |
| 20260902001626 | 89 | 211 | 5.2 | 7.8 | 0.00 | 0.00 | 0.00 | 24 | 1003.5 |
| 20260902000627 | 90 | 159 | 6.1 | 7.8 | 0.00 | 0.00 | 0.00 | 23 | 1003.5 |
| 20260901235608 | 90 | 164 | 8.7 | 11.3 | 0.00 | 0.00 | 0.00 | 23 | 1003.6 |
| 20260901234606 | 90 | 143 | 7.8 | 11.3 | 0.00 | 0.00 | 0.00 | 24 | 1003.7 |
| 20260901233608 | 91 | 169 | 7.0 | 9.6 | 0.00 | 0.00 | 0.00 | 24 | 1003.8 |
| 20260901232607 | 90 | 159 | 6.1 | 8.7 | 0.00 | 0.00 | 0.00 | 25 | 1003.8 |
| 20260901231606 | 90 | 147 | 7.8 | 10.4 | 0.00 | 0.00 | 0.00 | 27 | 1003.9 |
| 20260901230649 | 89 | 163 | 7.0 | 11.3 | 0.00 | 0.00 | 0.00 | 27 | 1004.0 |
| 20260901225607 | 90 | 135 | 7.0 | 8.7 | 0.00 | 0.00 | 0.00 | 29 | 1004.1 |
| 20260901224607 | 90 | 162 | 8.7 | 13.9 | 0.00 | 0.00 | 0.00 | 29 | 1004.2 |
| 20260901223607 | 89 | 162 | 7.8 | 11.3 | 0.00 | 0.00 | 0.00 | 29 | 1004.3 |
| 20260901222607 | 89 | 128 | 8.7 | 11.3 | 0.00 | 0.00 | 0.00 | 30 | 1004.5 |
| 20260901221607 | 89 | 140 | 7.8 | 13.0 | 0.00 | 0.00 | 0.00 | 32 | 1004.6 |
| 20260901220608 | 88 | 168 | 7.8 | 10.4 | 0.00 | 0.00 | 0.00 | 33 | 1004.7 |
| 20260901215609 | 88 | 164 | 7.8 | 11.3 | 0.00 | 0.00 | 0.00 | 33 | 1004.9 |
| 20260901214608 | 88 | 171 | 7.8 | 11.3 | 0.00 | 0.00 | 0.00 | 32 | 1005.0 |
| 20260901213608 | 88 | 131 | 7.8 | 10.4 | 0.00 | 0.00 | 0.00 | 31 | 1005.2 |
| 20260901212608 | 87 | 168 | 6.1 | 7.8 | 0.00 | 0.00 | 0.00 | 32 | 1005.3 |
| 20260901211609 | 86 | 145 | 7.8 | 10.4 | 0.00 | 0.00 | 0.00 | 34 | 1005.4 |
| 20260901210628 | 86 | 137 | 8.7 | 10.4 | 0.00 | 0.00 | 0.00 | 34 | 1005.5 |
| 20260901205650 | 85 | 134 | 8.7 | 11.3 | 0.00 | 0.00 | 0.00 | 35 | 1005.6 |
| 20260901204609 | 84 | 157 | 7.8 | 10.4 | 0.00 | 0.00 | 0.00 | 36 | 1005.8 |
| 20260901203608 | 83 | 131 | 6.1 | 7.8 | 0.00 | 0.00 | 0.00 | 37 | 1005.9 |
| 20260901202609 | 82 | 153 | 7.8 | 11.3 | 0.00 | 0.00 | 0.00 | 36 | 1006.0 |
| 20260901201609 | 82 | 139 | 8.7 | 11.3 | 0.00 | 0.00 | 0.00 | 36 | 1006.2 |
| 20260901200609 | 83 | 155 | 4.3 | 7.0 | 0.00 | 0.00 | 0.00 | 33 | 1006.2 |
| 20260901195609 | 82 | 290 | 4.3 | 7.0 | 0.00 | 0.00 | 0.00 | 33 | 1006.2 |
| 20260901194610 | 80 | 337 | 3.5 | 6.1 | 0.00 | 0.00 | 0.00 | 37 | 1006.4 |
| 20260901193609 | 79 | 6 | 4.3 | 6.1 | 0.00 | 0.00 | 0.00 | 39 | 1006.5 |
| 20260901192610 | 78 | 13 | 2.6 | 4.3 | 0.00 | 0.00 | 0.00 | 39 | 1006.6 |
| 20260901191610 | 77 | 1 | 2.6 | 4.3 | 0.00 | 0.00 | 0.00 | 41 | 1006.6 |
| 20260901190610 | 77 | 34 | 4.3 | 6.1 | 0.00 | 0.00 | 0.00 | 39 | 1006.7 |
| 20260901185610 | 78 | 60 | 4.3 | 5.2 | 0.00 | 0.00 | 0.00 | 40 | 1006.8 |
| 20260901184611 | 78 | 24 | 4.3 | 6.1 | 0.00 | 0.00 | 0.00 | 39 | 1006.8 |
| 20260901183610 | 78 | 45 | 2.6 | 2.6 | 0.00 | 0.00 | 0.00 | 37 | 1006.9 |
| 20260901183112 | 78 | 325 | 4.3 | 4.3 | 0.00 | 0.00 | 0.00 | 36 | 1006.8 |
| 20260901182111 | 77 | 15 | 1.7 | 3.5 | 0.00 | 0.00 | 0.00 | 38 | 1007.0 |
| 20260901181112 | 76 | 337 | 2.6 | 3.5 | 0.00 | 0.00 | 0.00 | 41 | 1007.1 |
| 20260901180112 | 74 | 292 | 2.6 | 4.3 | 0.00 | 0.00 | 0.00 | 44 | 1007.2 |
| 20260901175112 | 73 | 174 | 4.3 | 7.8 | 0.00 | 0.00 | 0.00 | 44 | 1007.2 |
| 20260901174111 | 73 | 90 | 2.6 | 5.2 | 0.00 | 0.00 | 0.00 | 50 | 1007.4 |
| 20260901173111 | 73 | 0.0 | 0.0 | 0.00 | 0.00 | 0.00 | 49 | 1007.3 | |
| 20260901172113 | 73 | 0.0 | 0.0 | 0.00 | 0.00 | 0.00 | 48 | 1007.3 | |
| 20260901171111 | 72 | 0.0 | 0.0 | 0.00 | 0.00 | 0.00 | 52 | 1007.2 | |
| 20260901170133 | 71 | 0.0 | 0.0 | 0.00 | 0.00 | 0.00 | 55 | 1007.2 | |
| 20260901165111 | 71 | 0.0 | 0.0 | 0.00 | 0.00 | 0.00 | 56 | 1007.2 | |
| 20260901164153 | 70 | 0.0 | 0.0 | 0.00 | 0.00 | 0.00 | 57 | 1007.3 | |
| 20260901163133 | 69 | 0.0 | 0.0 | 0.00 | 0.00 | 0.00 | 59 | 1007.4 | |
| 20260901162112 | 68 | 0.0 | 0.0 | 0.00 | 0.00 | 0.00 | 60 | 1007.3 | |
| 20260901161133 | 66 | 23 | 0.0 | 0.9 | 0.00 | 0.00 | 0.00 | 64 | 1007.3 |
| 20260901160114 | 65 | 0.0 | 0.0 | 0.00 | 0.00 | 0.00 | 69 | 1007.2 | |
| 20260901155112 | 64 | 0.0 | 0.0 | 0.00 | 0.00 | 0.00 | 72 | 1007.2 | |
| 20260901154114 | 62 | 0.0 | 0.0 | 0.00 | 0.00 | 0.00 | 75 | 1007.3 | |
| 20260901153114 | 61 | 35 | 1.7 | 2.6 | 0.00 | 0.00 | 0.00 | 77 | 1007.2 |
| 20260901152132 | 60 | 32 | 0.0 | 1.7 | 0.00 | 0.00 | 0.00 | 81 | 1007.2 |
| 20260901151134 | 59 | 141 | 1.7 | 2.6 | 0.00 | 0.00 | 0.00 | 82 | 1007.3 |
| 20260901150113 | 58 | 29 | 1.7 | 2.6 | 0.00 | 0.00 | 0.00 | 83 | 1007.2 |
| 20260901145113 | 57 | 0.0 | 0.0 | 0.00 | 0.00 | 0.00 | 84 | 1007.1 | |
| 20260901144133 | 57 | 135 | 0.0 | 1.7 | 0.00 | 0.00 | 0.00 | 84 | 1007.1 |
| 20260901143113 | 56 | 9 | 0.9 | 1.7 | 0.00 | 0.00 | 0.00 | 85 | 1007.0 |
| 20260901142113 | 56 | 113 | 0.9 | 1.7 | 0.00 | 0.00 | 0.00 | 85 | 1007.0 |
| 20260901141115 | 55 | 23 | 0.0 | 0.9 | 0.00 | 0.00 | 0.00 | 85 | 1006.9 |
| 20260901140113 | 55 | 0.0 | 0.0 | 0.00 | 0.00 | 0.00 | 84 | 1006.9 | |
| 20260901135115 | 54 | 141 | 0.9 | 1.7 | 0.00 | 0.00 | 0.00 | 84 | 1006.8 |
| 20260901134115 | 54 | 0.0 | 0.0 | 0.00 | 0.00 | 0.00 | 83 | 1006.7 | |
| 20260901133114 | 54 | 0 | 0.0 | 1.7 | 0.00 | 0.00 | 0.00 | 83 | 1006.7 |
| 20260901132114 | 54 | 0.0 | 1.7 | 0.00 | 0.00 | 0.00 | 82 | 1006.7 | |
| 20260901131114 | 54 | 0.0 | 0.0 | 0.00 | 0.00 | 0.00 | 82 | 1006.7 | |
| 20260901130114 | 54 | 0.0 | 0.0 | 0.00 | 0.00 | 0.00 | 81 | 1006.6 | |
| 20260901125116 | 55 | 0.0 | 0.0 | 0.00 | 0.00 | 0.00 | 81 | 1006.6 | |
| 20260901124136 | 55 | 0.0 | 0.0 | 0.00 | 0.00 | 0.00 | 80 | 1006.6 | |
| 20260901123115 | 55 | 0.0 | 0.0 | 0.00 | 0.00 | 0.00 | 80 | 1006.6 | |
| 20260901122116 | 55 | 0.0 | 0.0 | 0.00 | 0.00 | 0.00 | 79 | 1006.6 | |
| 20260901121115 | 56 | 0.0 | 0.0 | 0.00 | 0.00 | 0.00 | 79 | 1006.6 | |
| 20260901120115 | 56 | 0.0 | 0.0 | 0.00 | 0.00 | 0.00 | 78 | 1006.6 | |
| 20260901115115 | 56 | 0.0 | 0.0 | 0.00 | 0.00 | 0.00 | 78 | 1006.7 | |
| 20260901114115 | 56 | 0.0 | 0.0 | 0.00 | 0.00 | 0.00 | 78 | 1006.8 | |
| 20260901113137 | 56 | 0.0 | 0.0 | 0.00 | 0.00 | 0.00 | 77 | 1006.7 | |
| 20260901112115 | 56 | 0.0 | 0.0 | 0.00 | 0.00 | 0.00 | 77 | 1006.6 | |
| 20260901111115 | 55 | 309 | 0.9 | 2.6 | 0.00 | 0.00 | 0.00 | 77 | 1006.7 |
| 20260901110115 | 55 | 338 | 0.0 | 1.7 | 0.00 | 0.00 | 0.00 | 77 | 1006.7 |
| 20260901105115 | 55 | 180 | 0.0 | 0.9 | 0.00 | 0.00 | 0.00 | 76 | 1006.7 |
| 20260901104118 | 54 | 152 | 0.0 | 2.6 | 0.00 | 0.00 | 0.00 | 75 | 1006.8 |
| 20260901103117 | 54 | 0.0 | 0.0 | 0.00 | 0.00 | 0.00 | 76 | 1007.0 | |
| 20260901102116 | 54 | 0.0 | 0.0 | 0.00 | 0.00 | 0.00 | 76 | 1007.0 | |
| 20260901101138 | 54 | 0.0 | 0.0 | 0.00 | 0.00 | 0.00 | 76 | 1007.0 | |
| 20260901100116 | 54 | 0.0 | 0.0 | 0.00 | 0.00 | 0.00 | 76 | 1007.0 | |
| 20260901095116 | 54 | 0.0 | 0.0 | 0.00 | 0.00 | 0.00 | 76 | 1007.1 | |
| 20260901094116 | 55 | 0.0 | 0.0 | 0.00 | 0.00 | 0.00 | 74 | 1007.1 | |
| 20260901093118 | 55 | 0.0 | 0.0 | 0.00 | 0.00 | 0.00 | 75 | 1007.1 | |
| 20260901092018 | 55 | 180 | 0.0 | 1.7 | 0.00 | 0.00 | 0.00 | 74 | 1007.1 |
| 20260901091117 | 55 | 0.0 | 0.0 | 0.00 | 0.00 | 0.00 | 73 | 1007.1 | |
| 20260901090159 | 56 | 0.0 | 0.0 | 0.00 | 0.00 | 0.00 | 73 | 1007.1 | |
| 20260901085219 | 56 | 0.0 | 0.0 | 0.00 | 0.00 | 0.00 | 72 | 1007.1 | |
| 20260901084118 | 57 | 0.0 | 0.0 | 0.00 | 0.00 | 0.00 | 70 | 1007.1 | |
| 20260901083039 | 57 | 0.0 | 0.0 | 0.00 | 0.00 | 0.00 | 70 | 1007.2 | |
| 20260901082018 | 58 | 0.0 | 0.0 | 0.00 | 0.00 | 0.00 | 71 | 1007.3 | |
| 20260901081017 | 58 | 0.0 | 0.0 | 0.00 | 0.00 | 0.00 | 72 | 1007.4 | |
| 20260901080119 | 58 | 0.0 | 0.0 | 0.00 | 0.00 | 0.00 | 72 | 1007.5 | |
| 20260901075020 | 58 | 0.0 | 0.0 | 0.00 | 0.00 | 0.00 | 72 | 1007.5 | |
| 20260901074018 | 59 | 0.0 | 0.0 | 0.00 | 0.00 | 0.00 | 72 | 1007.5 | |
| 20260901073018 | 59 | 0.0 | 0.0 | 0.00 | 0.00 | 0.00 | 73 | 1007.5 | |
| 20260901072018 | 58 | 180 | 0.0 | 1.7 | 0.00 | 0.00 | 0.00 | 73 | 1007.5 |
| 20260901071018 | 59 | 0.0 | 0.0 | 0.00 | 0.00 | 0.00 | 72 | 1007.5 | |
| 20260901070018 | 59 | 332 | 0.0 | 1.7 | 0.00 | 0.00 | 0.00 | 71 | 1007.5 |
| 20260901065040 | 59 | 293 | 0.0 | 0.9 | 0.00 | 0.00 | 0.00 | 71 | 1007.6 |
| 20260901064020 | 59 | 293 | 0.9 | 1.7 | 0.00 | 0.00 | 0.00 | 69 | 1007.5 |
| 20260901063040 | 59 | 289 | 0.9 | 2.6 | 0.00 | 0.00 | 0.00 | 69 | 1007.5 |
| 20260901062019 | 59 | 261 | 0.9 | 1.7 | 0.00 | 0.00 | 0.00 | 69 | 1007.5 |
| 20260901061101 | 59 | 23 | 0.0 | 0.9 | 0.00 | 0.00 | 0.00 | 69 | 1007.6 |
| 20260901060019 | 59 | 235 | 1.7 | 2.6 | 0.00 | 0.00 | 0.00 | 69 | 1007.7 |
| 20260901055019 | 59 | 0.0 | 0.0 | 0.00 | 0.00 | 0.00 | 70 | 1007.8 | |
| 20260901054021 | 59 | 0.0 | 0.0 | 0.00 | 0.00 | 0.00 | 71 | 1007.8 | |
| 20260901053019 | 59 | 0.0 | 0.0 | 0.00 | 0.00 | 0.00 | 71 | 1007.8 | |
| 20260901052019 | 59 | 0.0 | 0.0 | 0.00 | 0.00 | 0.00 | 70 | 1007.9 | |
| 20260901051019 | 59 | 0.0 | 0.0 | 0.00 | 0.00 | 0.00 | 70 | 1007.8 | |
| 20260901050040 | 59 | 0.0 | 0.0 | 0.00 | 0.00 | 0.00 | 68 | 1007.8 | |
| 20260901045102 | 60 | 0.0 | 0.0 | 0.00 | 0.00 | 0.00 | 67 | 1007.8 | |
| 20260901044042 | 60 | 0.0 | 0.0 | 0.00 | 0.00 | 0.00 | 64 | 1007.8 | |
| 20260901043020 | 61 | 0.0 | 0.0 | 0.00 | 0.00 | 0.00 | 63 | 1007.8 | |
| 20260901042022 | 62 | 0.0 | 0.0 | 0.00 | 0.00 | 0.00 | 61 | 1007.8 | |
| 20260901041020 | 63 | 0.0 | 0.0 | 0.00 | 0.00 | 0.00 | 57 | 1007.8 | |
| 20260901040020 | 64 | 0.0 | 0.0 | 0.00 | 0.00 | 0.00 | 57 | 1007.8 | |
| 20260901035041 | 64 | 0.0 | 0.0 | 0.00 | 0.00 | 0.00 | 55 | 1007.7 | |
| 20260901034022 | 65 | 0.0 | 0.0 | 0.00 | 0.00 | 0.00 | 54 | 1007.7 |